Back to catalog

STARLINK-35659

AliveCommunicationsVLEO
NORAD 66385·PAYLOAD·🇺🇸 United States

Launched Nov 8, 2025 from Cape Canaveral Space Force Station

Loading…

Next Passes (next 24 hours)

TLE

FreshSource: CelesTrak SupGP

Epoch: Sep 14, 2026, 14:53 UTC

1 66385C 25257F   26257.62062500 -.00057399  00000+0 -16955-2 0  2571
2 66385  53.1598  55.0771 0001126  82.9865 199.6216 15.34425649    12

Track STARLINK-35659 in real time with AllMySat

Download on the App Store